Zurück zum Katalog

FENGYUN 1C DEB

LostSSO
NORAD 32193·DEBRIS·🇨🇳 China

Gestartet May 10, 1999 von Taiyuan Satellite Launch Center

Loading…

Nächste Überflüge (nächste 24 Stunden)

TLE

VeraltetSource: Space-Track

Epoche: May 24, 2024, 11:33 UTC

1 32193U 99025CUP 24145.48170259  .00018092  00000-0  55161-2 0  9995
2 32193  98.4664 239.0209 0074640 287.7727  71.5327 14.40376042869002

Verfolge FENGYUN 1C DEB in Echtzeit mit AllMySat

Download on the App Store